Atkins, VA

7:33 PM EDT on September 25, 2016 (GMT -0400)
Mountain Empire

Weather History for KMKJ - October, 2012

Change the Weather History Date:

Saturday, October 6, 2012

  Actual Average (KGEV) Record (KGEV)
Temperature  
Mean Temperature 57 °F -  
Max Temperature 66 °F 66 °F 75 °F (1981)
Min Temperature 49 °F 41 °F 26 °F (1988)
Degree Days  
Heating Degree Days 8    
Growing Degree Days 7 (Base 50)    
Moisture  
Dew Point 51 °F    
Average Humidity 84    
Maximum Humidity 95    
Minimum Humidity 71    
Precipitation  
Precipitation 0.00 in - - ()
Sea Level Pressure  
Sea Level Pressure 30.06 in    
Wind  
Wind Speed 5 mph (WNW)    
Max Wind Speed 21 mph    
Max Gust Speed 29 mph    
Visibility 9 miles    
Events Thunderstorm    
Averages and records for this station are not official NWS values.
T = Trace of Precipitation, MM = Missing Value Source: NWS Daily Summary

Daily Weather History Graph

Daily Weather History Graph

Search for Another Location

Airport or City:

Trip Planner

Search our weather history database for the weather conditions in past years. The results will help you decide how hot, cold, wet, or windy it might be!

Date:

Astronomy

Oct. 06, 2012 Rise Set
Actual Time 7:25 AM EDT 7:00 PM EDT
Civil Twilight 6:59 AM EDT 7:26 PM EDT
Nautical Twilight 6:29 AM EDT 7:56 PM EDT
Astronomical Twilight 5:59 AM EDT 8:26 PM EDT
Moon 11:21 PM EDT (10/6) 1:12 PM EDT (10/6)
Length of Visible Light 12h 27m
Length of Day
11h 35m
Waning Gibbous, 65% of the Moon is Illuminated
Oct 6
Waning Gibbous
Oct 8
Last Quarter
Oct 15
New
Oct 21
First Quarter
Oct 29
Full

Hourly Weather History & Observations

Time (EDT) Temp. Dew Point Humidity Pressure Visibility Wind Dir Wind Speed Gust Speed Precip Events Conditions
12:15 AM 53.8 °F 52.2 °F 94% 30.10 in 7.0 mi Calm Calm - N/A   Clear
12:35 AM 54.1 °F 52.5 °F 94% 30.09 in 7.0 mi Calm Calm - N/A   Clear
12:55 AM 53.2 °F 51.1 °F 92% 30.09 in 10.0 mi Calm Calm - N/A   Clear
1:15 AM 53.1 °F 51.6 °F 95% 30.08 in 5.0 mi Calm Calm - N/A   Clear
1:35 AM 52.7 °F 50.9 °F 94% 30.08 in 7.0 mi Calm Calm - N/A   Clear
1:55 AM 52.9 °F 50.9 °F 93% 30.07 in 10.0 mi Calm Calm - N/A   Scattered Clouds
2:15 AM 52.0 °F 50.5 °F 95% 30.07 in 7.0 mi Calm Calm - N/A   Scattered Clouds
2:55 AM 52.5 °F 50.2 °F 92% 30.05 in 10.0 mi Calm Calm - N/A   Mostly Cloudy
3:15 AM 52.0 °F 49.8 °F 92% 30.04 in 10.0 mi Calm Calm - N/A   Mostly Cloudy
3:35 AM 52.0 °F 50.4 °F 94% 30.04 in 10.0 mi Calm Calm - N/A   Scattered Clouds
3:55 AM 52.0 °F 50.4 °F 94% 30.03 in 7.0 mi Calm Calm - N/A   Clear
4:15 AM 51.1 °F 49.6 °F 95% 30.04 in 7.0 mi Calm Calm - N/A   Clear
4:35 AM 51.8 °F 49.6 °F 92% 30.03 in 10.0 mi Calm Calm - N/A   Clear
4:55 AM 51.8 °F 50.2 °F 94% 30.03 in 7.0 mi Calm Calm - N/A   Clear
5:35 AM 52.9 °F 51.3 °F 94% 30.03 in 7.0 mi Calm Calm - N/A   Clear
5:55 AM 53.2 °F 51.6 °F 94% 30.03 in 10.0 mi Calm Calm - N/A   Clear
6:15 AM 53.1 °F 51.3 °F 94% 30.03 in 7.0 mi Calm Calm - N/A   Clear
6:35 AM 54.9 °F 53.2 °F 94% 30.03 in 7.0 mi WSW 4.6 mph - N/A   Clear
6:55 AM 56.5 °F 54.5 °F 93% 30.03 in 10.0 mi WSW 8.1 mph - N/A   Clear
7:15 AM 57.2 °F 54.5 °F 91% 30.04 in 7.0 mi WSW 8.1 mph - N/A   Scattered Clouds
7:35 AM 56.3 °F 54.3 °F 93% 30.03 in 7.0 mi WSW 8.1 mph - N/A   Clear
7:55 AM 56.8 °F 54.7 °F 92% 30.03 in 5.0 mi WSW 6.9 mph - N/A   Scattered Clouds
8:15 AM 57.4 °F 55.0 °F 92% 30.04 in 7.0 mi WSW 10.4 mph - N/A   Scattered Clouds
8:35 AM 60.1 °F 56.7 °F 88% 30.03 in 10.0 mi WSW 13.8 mph 19.6 mph N/A   Mostly Cloudy
8:55 AM 61.0 °F 56.8 °F 86% 30.03 in 10.0 mi WSW 11.5 mph 17.3 mph N/A   Overcast
9:15 AM 63.9 °F 57.7 °F 80% 30.02 in 10.0 mi West 17.3 mph 24.2 mph N/A   Mostly Cloudy
9:35 AM 64.6 °F 57.6 °F 78% 30.02 in 10.0 mi West 20.7 mph - N/A   Scattered Clouds
9:55 AM 63.5 °F 56.8 °F 79% 30.02 in 10.0 mi West 20.7 mph 28.8 mph N/A   Scattered Clouds
10:15 AM 64.4 °F 57.9 °F 79% 30.02 in 10.0 mi West 17.3 mph 25.3 mph N/A   Overcast
10:35 AM 65.3 °F 58.3 °F 78% 30.03 in 10.0 mi West 16.1 mph 26.5 mph N/A   Overcast
10:55 AM 63.7 °F 57.7 °F 81% 30.03 in 10.0 mi West 13.8 mph 24.2 mph N/A   Overcast
11:15 AM 63.9 °F 58.1 °F 81% 30.04 in 10.0 mi West 19.6 mph - N/A   Overcast
11:35 AM 63.0 °F 58.1 °F 84% 30.04 in 10.0 mi West 16.1 mph 25.3 mph N/A   Overcast
11:55 AM 63.0 °F 58.1 °F 84% 30.05 in 7.0 mi West 16.1 mph - N/A   Overcast
12:15 PM 60.8 °F 56.8 °F 87% 30.06 in 7.0 mi WNW 17.3 mph 24.2 mph N/A   Overcast
12:35 PM 59.9 °F 55.4 °F 85% 30.06 in 10.0 mi WNW 17.3 mph 23.0 mph N/A   Overcast
12:55 PM 59.2 °F 54.7 °F 85% 30.06 in 10.0 mi WNW 15.0 mph 20.7 mph N/A   Overcast
1:15 PM 59.0 °F 54.0 °F 83% 30.06 in 10.0 mi WNW 12.7 mph 18.4 mph N/A   Overcast
1:35 PM 58.6 °F 53.4 °F 83% 30.06 in 10.0 mi WNW 15.0 mph 21.9 mph N/A   Overcast
1:55 PM 57.2 °F 52.2 °F 83% 30.05 in 10.0 mi NW 15.0 mph 21.9 mph N/A   Overcast
2:15 PM 57.2 °F 51.6 °F 82% 30.06 in 10.0 mi NW 11.5 mph 19.6 mph N/A   Overcast
2:35 PM 57.2 °F 50.9 °F 79% 30.06 in 10.0 mi West 9.2 mph 24.2 mph N/A   Overcast
2:55 PM 57.7 °F 50.2 °F 76% 30.06 in 10.0 mi WNW 10.4 mph 21.9 mph N/A   Overcast
3:15 PM 57.7 °F 50.9 °F 78% 30.06 in 10.0 mi WSW 5.8 mph - N/A   Overcast
3:35 PM 57.9 °F 51.6 °F 80% 30.06 in 10.0 mi West 5.8 mph - N/A   Overcast
3:55 PM 58.8 °F 51.3 °F 76% 30.06 in 10.0 mi West 8.1 mph - N/A   Overcast
4:15 PM 58.3 °F 50.5 °F 75% 30.06 in 10.0 mi WNW 8.1 mph - N/A   Overcast
4:35 PM 58.1 °F 50.0 °F 74% 30.06 in 10.0 mi NW 6.9 mph - N/A   Overcast
4:55 PM 58.1 °F 50.0 °F 74% 30.06 in 10.0 mi West 4.6 mph - N/A   Overcast
5:15 PM 58.5 °F 49.8 °F 73% 30.05 in 10.0 mi WNW 3.5 mph - N/A   Overcast
5:35 PM 58.8 °F 49.3 °F 71% 30.05 in 10.0 mi NW 5.8 mph - N/A   Overcast
5:55 PM 57.2 °F 49.5 °F 75% 30.06 in 10.0 mi WNW 5.8 mph - N/A   Overcast
6:15 PM 56.7 °F 49.5 °F 77% 30.06 in 10.0 mi WNW 6.9 mph - N/A   Overcast
6:35 PM 56.3 °F 49.5 °F 78% 30.07 in 10.0 mi NW 5.8 mph - N/A   Overcast
6:55 PM 55.6 °F 48.4 °F 77% 30.09 in 10.0 mi NW 6.9 mph - N/A   Overcast
7:15 PM 55.0 °F 47.5 °F 76% 30.09 in 10.0 mi NW 6.9 mph - N/A   Overcast
7:35 PM 54.7 °F 47.5 °F 77% 30.09 in 10.0 mi WNW 4.6 mph - N/A   Overcast
7:55 PM 54.5 °F 47.1 °F 76% 30.09 in 10.0 mi NNW 3.5 mph - N/A   Overcast
8:15 PM 54.0 °F 46.8 °F 77% 30.10 in 10.0 mi WNW 6.9 mph - N/A   Overcast
8:35 PM 53.8 °F 46.9 °F 78% 30.10 in 10.0 mi West 5.8 mph - N/A   Overcast
8:55 PM 53.6 °F 46.6 °F 77% 30.11 in 10.0 mi WNW 8.1 mph - N/A   Overcast
9:15 PM 53.6 °F 46.4 °F 77% 30.11 in 10.0 mi WNW 6.9 mph - N/A   Overcast
9:35 PM 53.2 °F 46.6 °F 78% 30.11 in 10.0 mi WNW 8.1 mph - N/A   Overcast
9:55 PM 52.7 °F 46.2 °F 79% 30.10 in 10.0 mi WNW 6.9 mph - N/A   Overcast
10:15 PM 52.7 °F 46.0 °F 78% 30.10 in 10.0 mi WNW 3.5 mph - N/A Thunderstorm Overcast
10:35 PM 52.2 °F 45.5 °F 78% 30.10 in 10.0 mi WNW 3.5 mph - N/A   Overcast
10:55 PM 51.3 °F 45.1 °F 80% 30.11 in 10.0 mi NW 4.6 mph - N/A   Mostly Cloudy
11:15 PM 50.9 °F 45.1 °F 81% 30.10 in 10.0 mi NW 3.5 mph - N/A   Mostly Cloudy
11:35 PM 49.8 °F 45.3 °F 84% 30.10 in 10.0 mi Calm Calm - N/A   Overcast
11:55 PM 49.8 °F 45.1 °F 84% 30.09 in 10.0 mi Calm Calm - N/A   Scattered Clouds